Date,TemperatureHighF,TemperatureAvgF,TemperatureLowF,DewpointHighF,DewpointAvgF,DewpointLowF,HumidityHigh,HumidityAvg,HumidityLow,PressureMaxIn,PressureMinIn,WindSpeedMaxMPH,WindSpeedAvgMPH,GustSpeedMaxMPH,PrecipitationSumIn
2013-9-1,80,68,60,72,66,60,99,92,76,29.82,29.68,4,0,6,0.09
2013-9-2,70,65,58,69,60,53,98,85,69,29.90,29.69,11,4,18,0.01
2013-9-3,74,63,56,58,54,52,90,74,51,29.98,29.89,14,3,17,0.00
2013-9-4,81,66,53,66,60,52,98,80,57,30.05,29.95,13,3,17,0.00
2013-9-5,70,59,47,61,49,43,95,74,40,30.23,30.06,7,2,14,0.00
2013-9-6,76,60,43,56,51,42,98,75,46,30.26,30.03,10,2,13,0.00
2013-9-7,76,68,60,70,62,52,95,82,70,30.03,29.85,7,2,13,0.11
2013-9-8,74,67,55,68,58,49,96,74,48,30.07,29.89,13,2,13,0.00
2013-9-9,80,66,50,71,61,48,96,86,74,30.04,29.83,9,2,10,0.00
2013-9-10,94,82,72,73,70,65,91,70,41,29.94,29.81,15,4,19,0.00
2013-9-11,88,78,68,73,69,65,91,76,55,29.95,29.88,13,3,13,0.08
2013-9-12,76,66,57,65,59,45,98,80,50,29.94,29.82,12,3,19,0.12
2013-9-13,60,52,40,47,44,38,96,73,48,30.13,29.95,12,3,18,0.00
2013-9-14,68,51,34,47,42,33,99,74,39,30.18,30.06,8,2,13,0.00
2013-9-15,61,54,47,55,49,44,97,84,66,30.11,30.03,5,1,8,0.05
2013-9-16,62,54,41,54,48,39,97,84,55,30.38,30.11,10,2,12,0.02
2013-9-17,69,50,31,52,43,31,99,79,51,30.41,30.21,6,1,10,0.00
2013-9-18,77,61,41,58,51,40,98,74,48,30.21,30.00,9,2,13,0.00
2013-9-19,80,69,59,70,64,57,94,83,67,30.01,29.84,10,2,13,0.00
2013-9-20,77,71,66,72,68,65,95,89,78,29.84,29.68,10,3,14,0.06
2013-9-21,68,60,53,65,54,44,96,80,52,29.86,29.64,11,4,17,0.00
2013-9-22,58,50,40,45,42,39,96,75,55,30.08,29.86,7,2,16,0.00
2013-9-23,60,48,34,47,42,34,98,82,59,30.19,30.08,4,0,8,0.00
2013-9-24,70,52,34,50,44,34,99,78,47,30.15,29.99,5,1,9,0.00
2013-9-25,75,54,37,57,47,36,99,79,39,30.01,29.94,6,1,12,0.01
2013-9-26,78,56,39,58,48,38,99,81,40,30.12,30.00,5,0,7,0.00
2013-9-27,79,60,41,57,50,40,99,74,41,30.22,30.12,7,1,11,0.00
2013-9-28,78,64,49,62,55,48,99,76,46,30.17,29.97,9,2,15,0.01
2013-9-29,64,60,51,60,56,50,98,88,74,29.97,29.89,7,2,14,0.17
2013-9-30,70,58,52,57,53,50,99,84,53,30.00,29.89,8,1,11,0.01